Kezdőlap
METAR-TAF:

METAR-TAF

Repülőterek :

Benson, Minnesota, Amerikai Egyesült Államok

földrajzi szélesség: 45-19N, földrajzi hosszúság: 095-39W, magasság: 317 m

Jelenlegi meteorológiai megfigyelések

A jelentés 19 perccel ezelõtt készült, 07:43 UTC
Északi szél 6 kt
Hőmérséklet 18°C
Páratartalom 88%
Légköri nyomás 1014 hPa
Látótávolság: 16.1 km
Szórványos felhőzet 4400 lábon

METAR: KBBB 100743Z AUTO 36006KT 10SM SCT044 18/16 A2993 RMK AO2

Idő: 03:02 (08:02 UTC)


TAF: hiányzik

Meteorológiai megfigyelések és előrejelzések több, mint 4000 repülőtéren (METAR és TAF jelentéseket).

A térképen piros és sárga pontok jelzik az elérhető meteorológiai állomásokat.

Mozgassa az egeret a pont fölött, hogy megjelenjen az állomás neve.

Azután kattintson az időjárási megfigyelések és előrejelzések megtekintéséhez.

A térkép megváltoztatása: kattintson a fekete keresztel jelölt zöld gombra ráközelítéshez, a vonallal jelölt zöld gombra távolításhoz, vagy a zöld nyilakra a szomszédos térképek eléréséhez.


METAR-TAF: